OpenBCM V1.13 (Linux)

Packet Radio Mailbox

DB0FHN

[JN59NK Nuernberg]

 Login: GUEST





  
LU9DCE > KEP      18.03.19 19:34l 252 Lines 12342 Bytes #999 (0) @ WW
BID : 20241_LU9DCE
Read: DF7EAV DK3UZ GUEST
Subj: TLE 18 03
Path: DB0FHN<DB0BLO<DB0ERF<DB0RES<PI8CDR<GB7YEW<LU9DCE
Sent: 190318/1801Z 20241@LU9DCE.TOR.BA.ARG.SOAM LinBPQ6.0.18

            __    _  _  ___  ____   ___  ____    ____  ____  ____
           (  )  / )( \/ _ \(    \ / __)(  __)  (  _ \(  _ \/ ___)
           / (_/\) \/ (\__  )) D (( (__  ) _)    ) _ ( ) _ (\___ \
           \____/\____/(___/(____/ \___)(____)  (____/(____/(____/
               ESTACION DE PACKET RADIO - BUENOS AIRES (GF05OM)
                   BOLETINES INFORMATIVOS PROGRAMADOS (BIP)
                  SOPORTE TECNICO - HELLOCODELINUX@GMAIL.COM

+----------------------------------------------------------------------------+
OSCAR 7
1  7530U 74089B   19076.88782685 -.00000028 +00000-0 +10324-3 0  9992
2  7530 101.7328 045.5428 0012163 164.6697 220.7017 12.53637267028651
OSCAR 11 (UoSAT 2)
1 14781U 84021B   19077.33547198  .00000084  00000-0  16457-4 0  9999
2 14781  97.6208 106.3743 0007005 261.3452  98.6969 14.83069912885072
OSCAR 19 (LUSAT)
1 20442U 90005G   19076.86867901 -.00000006 +00000-0 +14073-4 0  9990
2 20442 098.6400 019.0697 0012841 065.3591 294.8929 14.32919561523024
EYESAT A
1 22825U 93061C   19076.93376368 +.00000006 +00000-0 +20423-4 0  9997
2 22825 098.8970 063.4855 0007326 269.4902 090.5440 14.30053460328420
ITAMSAT
1 22826U 93061D   19076.95702447 +.00000008 +00000-0 +20960-4 0  9999
2 22826 098.8910 063.5123 0007870 256.9802 103.0501 14.30386562328642
RADIO ROSTO
1 23439U 94085A   19076.95068994 -.00000018 +00000-0 +68175-3 0  9990
2 23439 064.8139 266.1007 0148381 130.9993 341.8014 11.27568313997435
JAS 2
1 24278U 96046B   19076.89881016 +.00000016 +00000-0 +48972-4 0  9993
2 24278 098.5229 242.9615 0351279 120.6317 242.9955 13.53089790115004
TECHSAT 1B
1 25397U 98043D   19076.91881093 -.00000023 +00000-0 +92036-5 0  9993
2 25397 098.6806 018.2303 0000823 007.3193 352.7997 14.23661803074454
ISS (ZARYA)
1 25544U 98067A   19077.54523375  .00002037  00000-0  39742-4 0  9999
2 25544  51.6416  91.8453 0003889 114.4645  28.5746 15.52822916161177
PCSAT
1 26931U 01043C   19076.93388249 -.00000029  00000-0  20687-4 0  9997
2 26931  67.0498 243.0372 0005419 274.7228  85.3254 14.30535348911700
SAUDISAT 1C
1 27607U 02058C   19076.89779774 -.00000020  00000-0  18047-4 0  9995
2 27607  64.5560 333.2987 0082345 274.2000  84.9695 14.75527472873342
CUTE-1
1 27844U 03031E   19076.92550143 +.00000052 +00000-0 +43256-4 0  9995
2 27844 098.6868 086.5145 0008802 303.2354 056.7979 14.22165053815061
CUBESAT XI 4
1 27848U 03031J   19076.96166620 +.00000043 +00000-0 +39602-4 0  9996
2 27848 098.6948 087.0288 0008858 315.5715 044.4751 14.21761964814935
MOZHAYETS 4
1 27939U 03042A   19077.47661916  .00000064  00000-0  20009-4 0  9998
2 27939  98.0221 215.1726 0012919   6.5069 353.6301 14.66760940827029
CUBESAT XI 5
1 28895U 05043F   19076.94470473 +.00000110 +00000-0 +29936-4 0  9990
2 28895 097.9431 222.9351 0015446 285.4397 074.5100 14.63638733713685
CUTE-1.7+APD II
1 32785U 08021C   19077.17300441  .00000203  00000-0  27521-4 0  9996
2 32785  97.5491  81.2579 0012412 203.6255 156.4394 14.88263672589929
DELFI C3
1 32789U 08021G   19076.71621830 +.00000958 +00000-0 +68420-4 0  9997
2 32789 097.4763 129.1427 0013948 085.4479 274.8341 15.06720680592869
SEEDS
1 32791U 08021J   19076.74241803 +.00000222 +00000-0 +27941-4 0  9998
2 32791 097.5303 086.7122 0013316 180.7637 179.3564 14.90753503590188
YUBELEINY
1 32953U 08025A   19077.49037127  .00000020  00000-0  75656-4 0  9999
2 32953  82.5057 202.0853 0018325 333.3961  26.6178 12.43088082490850
PRISM (HITOMI)
1 33493U 09002B   19076.72814305  .00000752  00000-0  71560-4 0  9993
2 33493  98.1233 354.1633 0016300 126.8131 233.4587 14.96546166551244
KKS-1 (KISEKI)
1 33499U 09002H   19076.90037681 +.00000098 +00000-0 +22520-4 0  9998
2 33499 098.3549 272.6140 0010043 136.4719 223.7283 14.75414438545113
SWISSCUBE
1 35932U 09051B   19076.90875874 +.00000116 +00000-0 +37258-4 0  9995
2 35932 098.5761 240.2185 0008815 091.5868 268.6339 14.56253324503236
BEESAT
1 35933U 09051C   19077.39846612  .00000106  00000-0  34862-4 0  9995
2 35933  98.5795 242.4331 0007024 101.6179 258.5807 14.56346627503451
ITUPSAT 1
1 35935U 09051E   19076.99059968  .00000091  00000-0  31957-4 0  9997
2 35935  98.5906 242.2574 0009333  99.6912 260.5339 14.55510755503154
XIWANG-1 (HOPE-1)
1 36122U 09072B   19077.46601944 -.00000032  00000-0  27225-4 0  9998
2 36122 100.0744  84.1835 0007263 192.6175 167.4760 13.16348663444745
TISAT 1
1 36799U 10035E   19076.94032939 +.00000357 +00000-0 +42208-4 0  9990
2 36799 098.1410 226.0950 0012916 036.0758 324.1328 14.91027419470744
JUGNU
1 37839U 11058B   19076.65214333 +.00000325 +00000-0 +31570-4 0  9995
2 37839 019.9604 178.9765 0019073 021.7414 117.6137 14.12644262383971
SRMSAT
1 37841U 11058D   19076.77868615  .00000305  00000-0  22197-4 0  9992
2 37841  19.9713 233.0642 0011782 256.3992 236.6240 14.10626597383558
M-CUBED/EXP-1 PRIME
1 37855U 11061F   19076.61075535 +.00000888 +00000-0 +52639-4 0  9995
2 37855 101.7273 284.3713 0174317 352.6716 007.1952 15.05197563402307
HORYU 2
1 38340U 12025D   19077.08937645  .00000169  00000-0  32824-4 0  9993
2 38340  98.3408 112.8460 0012626  63.1020 297.1477 14.75679457367506
STRAND 1
1 39090U 13009E   19077.05509500  .00000034  00000-0  27090-4 0  9991
2 39090  98.4977 284.5147 0008725 197.5314 162.5571 14.35074116317101
SOMP
1 39134U 13015E   19076.92135222 +.00001284 +00000-0 +68646-4 0  9998
2 39134 064.8639 320.9393 0021866 317.1278 042.8143 15.19902632326112
BEESAT 3
1 39135U 13015F   19076.94376078 +.00000777 +00000-0 +48659-4 0  9995
2 39135 064.8698 337.8886 0009883 295.9573 064.0535 15.17263349325784
BEESAT 2
1 39136U 13015G   19077.14431641  .00000876  00000-0  54382-4 0  9997
2 39136  64.8713 340.7813 0011402 294.1502  65.8431 15.16707495326137
CUBEBUG 1
1 39153U 13018D   19077.51149483  .00000201  00000-0  33076-4 0  9999
2 39153  97.9744 176.1856 0018045 134.4524 225.8168 14.80526111318180
ZACUBE
1 39417U 13066B   19076.94606411 +.00000216 +00000-0 +33559-4 0  9992
2 39417 097.5686 095.6322 0058357 339.5130 020.3743 14.81069420287311
TRITON 1
1 39427U 13066M   19077.49477590  .00000216  00000-0  41992-4 0  9998
2 39427  97.6677  60.6190 0115369 100.5514 260.8712 14.67792628284813
GOMX 1
1 39430U 13066Q   19077.53263413  .00000146  00000-0  35401-4 0  9994
2 39430  97.7347  40.2188 0151098 184.3160 175.6730 14.59207486283163
HUMSAT D
1 39433U 13066T   19077.13927597  .00000463  00000-0  50620-4 0  9995
2 39433  97.5664 128.3692 0029405 248.1635 111.6456 14.92105873289273
CUBEBUG 2
1 39440U 13066AA  19076.93308934 +.00000240 +00000-0 +40259-4 0  9998
2 39440 097.6015 080.8535 0081021 027.3422 333.2017 14.75807152285094
FUNCUBE 1
1 39444U 13066AE  19077.47017293  .00000261  00000-0  38602-4 0  9999
2 39444  97.5675  97.9790 0057273 332.0008  27.8128 14.81878681286271
UWE-3
1 39446U 13066AG  19076.96065706 +.00000240 +00000-0 +38529-4 0  9991
2 39446 097.5838 087.7779 0070131 003.9700 356.2053 14.78342302284972
SPROUT
1 39770U 14029E   19077.46047083  .00000602  00000-0  72941-4 0  9993
2 39770  97.8795 181.4048 0010170  34.8364 325.3534 14.87214231261126
UNISAT 6
1 40012U 14033C   19077.21525994  .00000156  00000-0  30700-4 0  9995
2 40012  97.7717 307.7331 0059298  37.2901 323.2402 14.73938023255060
DUCHIFAT 1
1 40021U 14033M   19076.83914138  .00000326  00000-0  39186-4 0  9990
2 40021  97.9224   1.1426 0013076   3.1634 356.9664 14.90547469257710
QB50P1
1 40025U 14033R   19076.82387048  .00000254  00000-0  33064-4 0  9996
2 40025  97.9066 356.6598 0012766  11.7980 348.3533 14.88883718257504
CHUBUSAT 1
1 40300U 14070C   19077.21840491  .00000593  00000-0  28886-4 0  9995
2 40300  97.3362 153.7117 0021193  24.3380  36.2303 15.21950509241955
NUDT-PHONESAT
1 40900U 15049B   19077.31333057  .00001964  00000-0  87932-4 0  9994
2 40900  97.4410  87.5711 0014165 142.5301 343.1317 15.22381581193609
ZDPS 2A
1 40901U 15049C   19077.43841465  .00000693  00000-0  37801-4 0  9993
2 40901  97.4618  84.6041 0014195 156.6588 310.9877 15.17551613193242
ZDPS 2B
1 40902U 15049D   19077.51867084  .00000785  00000-0  42639-4 0  9995
2 40902  97.4549  82.3036 0014107 154.1413 323.6937 15.17327123193232
XW-2A
1 40903U 15049E   19077.48345801  .00002088  00000-0  51724-4 0  9993
2 40903  97.3513 119.6811 0015443 115.1498 352.3819 15.41474438196041
KAITUO 1A
1 40904U 15049F   19077.49349188  .00000507  00000-0  30407-4 0  9996
2 40904  97.4668  81.0919 0015017 160.7190 350.3551 15.15271808193031
OBJECT G
1 40905U 15049G   19077.50251043  .00000101  00000-0  91235-5 0  9998
2 40905  97.4690  78.7686 0016343 155.4590 321.1497 15.14203603192928
XW-2C
1 40906U 15049H   19077.37232505  .00000386  00000-0  23816-4 0  9990
2 40906  97.4671  80.9938 0015702 152.9915 314.9613 15.15542056193014
XW-2D
1 40907U 15049J   19077.50106218  .00000588  00000-0  34266-4 0  9992
2 40907  97.4648  80.7987 0015040 149.7112   1.6759 15.15720957193041
LILACSAT 2
1 40908U 15049K   19077.45972528  .00000220  00000-0  15824-4 0  9994
2 40908  97.4777  79.7467 0016742 155.6074   5.4367 15.13722839192853
XW-2F
1 40910U 15049M   19077.40847809  .00001214  00000-0  64498-4 0  9990
2 40910  97.4627  82.5186 0015842 144.7813 325.1846 15.17088674193020
XW-2B
1 40911U 15049N   19077.46524363  .00000709  00000-0  40693-4 0  9993
2 40911  97.4679  81.3886 0015001 150.7421   9.8023 15.15656179192932
KAITUO 1B
1 40912U 15049P   19077.44628196  .00001054  00000-0  52945-4 0  9998
2 40912  97.4514  86.0039 0016423 130.2294 334.6381 15.19371508193305
TIANWANG 1C (TW-1C)
1 40926U 15051B   19077.48632391  .00012543  00000-0  19744-3 0  9996
2 40926  97.1496 123.8459 0008656   8.0543  99.1831 15.53681332195830
